TimeMST,TemperatureF,Dew PointF,Humidity,Sea Level PressureIn,VisibilityMPH,Wind Direction,Wind SpeedMPH,Gust SpeedMPH,PrecipitationIn,Events,Conditions,WindDirDegrees,DateUTC
12:54 AM,24.1,-0.9,34,30.07,10.0,West,12.7,-,N/A,,Clear,280,2013-01-19 07:54:00
1:54 AM,26.1,-0.9,31,30.06,10.0,West,13.8,-,N/A,,Clear,260,2013-01-19 08:54:00
2:54 AM,24.1,-2.0,32,30.08,10.0,West,13.8,-,N/A,,Clear,270,2013-01-19 09:54:00
3:54 AM,27.0,-2.9,27,30.08,10.0,West,16.1,-,N/A,,Clear,260,2013-01-19 10:54:00
4:54 AM,28.0,-4.0,25,30.10,10.0,West,16.1,-,N/A,,Clear,260,2013-01-19 11:54:00
5:54 AM,24.1,-4.0,29,30.18,10.0,West,11.5,-,N/A,,Clear,270,2013-01-19 12:54:00
6:54 AM,26.1,-4.0,27,30.21,10.0,West,11.5,-,N/A,,Clear,270,2013-01-19 13:54:00
7:54 AM,28.0,-2.0,27,30.27,10.0,West,9.2,-,N/A,,Clear,260,2013-01-19 14:54:00
8:54 AM,37.0,1.0,22,30.29,10.0,West,6.9,-,N/A,,Clear,260,2013-01-19 15:54:00
9:54 AM,46.9,1.9,16,30.28,10.0,WNW,5.8,-,N/A,,Clear,300,2013-01-19 16:54:00
10:54 AM,55.0,-0.9,10,30.23,10.0,ENE,13.8,-,N/A,,Clear,60,2013-01-19 17:54:00
11:54 AM,54.0,1.0,12,30.23,10.0,ESE,10.4,-,N/A,,Clear,120,2013-01-19 18:54:00
12:54 PM,54.0,1.9,12,30.22,10.0,SSE,10.4,-,N/A,,Clear,150,2013-01-19 19:54:00
1:54 PM,54.0,1.9,12,30.19,10.0,SSE,9.2,-,N/A,,Clear,160,2013-01-19 20:54:00
2:54 PM,53.1,1.0,12,30.20,10.0,SE,6.9,-,N/A,,Clear,130,2013-01-19 21:54:00
3:54 PM,53.1,1.0,12,30.19,10.0,ESE,4.6,-,N/A,,Clear,120,2013-01-19 22:54:00
4:54 PM,46.9,1.9,16,30.21,10.0,ESE,6.9,-,N/A,,Clear,120,2013-01-19 23:54:00
5:54 PM,41.0,1.0,19,30.25,10.0,SSE,6.9,-,N/A,,Clear,150,2013-01-20 00:54:00
6:54 PM,32.0,1.0,27,30.29,10.0,West,6.9,-,N/A,,Clear,260,2013-01-20 01:54:00
7:54 PM,37.9,5.0,25,30.25,10.0,SW,3.5,-,N/A,,Clear,230,2013-01-20 02:54:00
8:54 PM,39.0,6.1,26,30.20,10.0,WSW,13.8,-,N/A,,Clear,240,2013-01-20 03:54:00
9:54 PM,35.1,6.1,30,30.17,10.0,WSW,9.2,-,N/A,,Clear,250,2013-01-20 04:54:00
11:54 PM,37.0,7.0,29,30.12,10.0,SW,13.8,-,N/A,,Clear,230,2013-01-20 06:54:00